Location: ????
(30.1475°N, 31.1342°E)
Time: 03:53:39
(UTC+00:00)

Meteor 1-14 Rocket - Pass Details

Date: 27 September 2022
Orbit: 833 x 919 km, 81.3° (Epoch: 30 November)

Event Time Altitude Azimuth Distance (km) Brightness Sun altitude
Rises 01:56:23 0° 349° (NNW) 3,540 7.5 -24.4°
Reaches altitude 10° 01:58:53 10° 347° (NNW) 2,586 6.7 -23.9°
Maximum altitude 02:04:44 68° 265° (W) 957 4.2 -22.7°
Drops below altitude 10° 02:10:25 10° 184° (S) 2,517 6.5 -21.5°
Sets 02:12:49 0° 181° (S) 3,439 7.3 -21.0°
